Wind_Speed
21 20 20 19 19 19 18 17 17 17 17 17 17 17 16 16 15 15 15 15 15 14 14 15 15 15 15 14 13 13 14 14 14 13 13 12 12 12 11 11 10 10 9 9 8 8 7 7 7
22 22 22 22 22 21 19 18 18 18 18 18 18 18 18 17 16 16 16 16 16 16 16 16 16 16 16 16 16 15 15 15 15 15 14 14 13 13 12 12 12 11 11 10 10 9 9 8 8
25 24 24 24 23 22 21 20 19 19 20 20 19 19 19 19 19 19 18 17 17 17 17 17 17 17 17 18 18 18 17 16 17 16 15 15 15 14 14 14 13 13 12 12 12 11 11 10 10
26 26 26 26 24 23 22 22 22 21 21 21 21 21 21 21 21 20 20 20 19 19 19 19 19 19 19 19 20 20 19 19 18 18 17 17 17 16 16 15 15 15 14 13 13 13 12 12 12
27 27 27 27 25 24 23 23 24 23 22 23 24 23 23 22 21 21 21 21 21 21 21 21 21 21 21 21 22 22 22 21 20 20 19 19 18 18 18 17 16 16 16 15 15 15 14 14 13
28 28 28 27 25 25 25 25 25 25 25 25 25 25 25 24 23 23 23 22 22 23 23 23 23 23 23 23 23 23 24 23 22 21 21 21 20 20 19 19 18 18 18 17 17 17 16 16 15
28 28 28 27 26 25 26 26 26 27 27 26 27 27 27 26 25 25 24 24 24 24 25 25 24 24 24 25 25 25 25 25 25 24 24 23 22 22 21 21 21 20 20 19 19 19 19 18 18
28 28 27 27 26 26 26 27 27 27 27 27 28 28 28 28 27 26 26 25 25 25 26 26 26 26 26 26 26 26 26 26 26 26 25 25 24 24 23 23 22 22 22 22 21 21 20 20 20
28 28 27 27 27 26 27 27 27 27 27 28 28 29 29 29 27 27 27 27 27 27 27 27 28 28 28 28 27 27 28 29 28 28 27 26 26 25 25 25 24 24 23 23 23 23 22 22 22
28 28 28 28 28 28 28 28 28 28 27 28 29 30 30 30 29 29 29 29 28 28 28 29 29 30 30 30 30 29 29 29 29 29 29 29 28 27 27 27 26 25 25 25 24 24 24 24 24
29 29 28 29 28 28 29 29 29 29 28 28 28 29 30 30 29 30 30 30 30 31 31 30 30 31 32 32 32 32 31 31 31 31 31 30 30 29 29 28 27 27 27 27 26 26 26 25 25
29 29 29 29 29 29 29 29 29 29 29 28 28 29 29 30 30 31 31 31 32 32 32 33 32 33 33 34 34 34 34 34 34 33 33 33 32 32 31 30 29 29 29 28 28 28 28 27 27
29 29 30 30 29 29 30 30 30 29 29 29 28 29 30 31 32 32 32 33 33 34 34 34 34 34 34 35 36 36 36 36 36 36 36 35 35 35 34 33 31 31 30 30 29 29 29 29 29
28 29 30 31 31 30 31 31 31 30 31 30 30 30 31 32 33 33 34 34 35 35 35 35 35 35 35 35 35 36 37 37 38 38 37 37 36 36 36 34 33 33 32 32 31 31 30 31 31
27 29 30 30 31 31 31 31 31 31 31 31 31 32 33 33 33 34 35 35 35 36 36 36 36 36 36 36 36 36 37 37 38 38 38 38 37 37 36 35 35 34 34 34 33 33 32 32 32
27 28 30 30 31 31 32 31 31 32 32 32 32 33 34 34 34 35 36 36 36 36 36 36 37 37 37 36 36 36 36 37 38 38 38 38 38 38 37 36 36 35 35 35 35 34 34 33 33
27 28 29 30 31 31 32 32 31 32 33 33 33 33 34 34 35 35 36 37 37 37 36 36 36 37 37 37 38 37 36 36 37 38 38 39 39 39 38 37 36 36 36 36 36 36 35 34 34
28 29 29 29 31 32 32 32 31 32 33 33 33 33 34 35 36 36 37 37 37 37 37 36 37 37 37 37 36 36 35 36 36 36 36 38 38 38 38 38 37 37 36 36 36 36 34 35 35
30 30 30 30 31 32 33 32 31 31 31 32 33 34 34 35 36 36 37 37 37 37 37 36 36 36 36 36 35 35 34 34 35 35 35 36 36 37 36 36 37 37 37 38 38 37 37 36 36
31 31 31 31 32 33 32 32 31 31 31 32 33 34 34 35 35 35 36 36 36 37 36 36 36 36 35 35 35 35 34 33 33 35 36 36 36 35 35 36 37 37 37 38 38 38 38 38 38
31 31 31 31 32 32 33 32 30 30 31 31 32 32 33 33 34 34 35 35 35 35 36 36 34 34 34 35 35 36 36 35 34 34 35 36 37 36 36 36 37 36 37 37 37 38 38 39 39
30 30 31 31 32 31 32 33 30 29 30 31 30 30 31 32 33 34 33 34 34 34 35 36 35 34 33 33 34 35 35 34 34 34 34 35 36 36 36 37 36 37 37 37 38 39 39 39 40
30 29 30 31 31 32 31 33 31 29 29 28 29 29 29 30 31 32 32 32 33 33 33 34 35 35 34 33 33 33 34 34 34 34 34 35 36 36 36 36 36 37 38 39 39 39 39 39 40
29 29 30 31 31 32 30 32 31 29 28 27 27 29 29 30 29 30 31 31 31 32 32 33 34 35 34 34 34 33 33 33 34 34 35 35 36 36 37 37 37 37 38 38 38 39 40 40 40
28 28 29 30 31 31 30 31 30 29 28 28 27 27 28 28 29 29 29 30 31 31 31 32 33 33 33 34 34 34 34 34 34 34 35 35 36 36 37 38 38 38 39 39 38 39 40 41 41
27 27 28 29 30 29 29 30 29 29 29 28 28 27 27 27 28 28 29 29 30 31 31 32 32 32 32 33 33 34 34 34 35 35 35 36 36 37 38 39 39 38 38 38 39 40 39 40 41
26 26 27 28 29 29 29 29 28 28 27 27 27 27 26 26 27 28 28 29 29 30 30 31 31 32 32 32 33 32 32 33 35 35 35 36 37 38 39 40 41 42 41 41 40 40 40 41 41
27 26 27 28 29 30 29 27 26 26 26 26 26 26 26 27 27 28 28 28 29 29 30 30 31 31 32 32 32 33 33 33 33 33 35 37 38 39 39 40 41 42 42 41 41 42 42 43 44
27 27 28 29 30 30 30 28 26 26 25 25 26 26 26 26 27 27 28 27 28 29 30 30 31 32 32 33 33 33 33 34 34 34 35 36 37 39 40 40 40 41 42 43 43 43 42 42 43
27 28 29 30 31 31 32 30 27 27 26 26 26 26 26 26 26 26 27 28 29 29 30 31 31 32 32 33 33 33 33 34 35 36 36 37 37 38 39 41 42 42 42 42 43 43 43 42 42
Wind_Direction
245 244 244 243 244 245 246 246 248 249 250 251 252 252 253 252 250 251 250 250 249 248 246 244 242 242 241 242 245 247 250 250 248 245 243 244 248 251 251 252 251 252 253 252 249 247 247 246 247
247 246 245 244 244 245 246 247 249 251 250 251 251 251 250 250 250 250 249 250 249 248 247 246 246 245 244 244 245 246 248 251 249 246 244 243 248 251 252 254 254 254 255 255 253 251 252 251 250
247 246 246 245 245 247 248 249 249 250 251 251 252 251 250 249 250 251 250 250 249 247 245 246 246 247 246 245 246 247 248 250 249 246 246 245 248 251 252 253 255 255 256 256 253 253 253 253 252
247 247 247 247 247 247 248 249 251 251 251 252 253 252 251 250 250 251 250 249 250 250 248 247 248 248 248 247 246 248 249 249 250 249 249 249 250 251 252 253 255 255 256 254 253 253 254 255 256
246 246 247 248 248 248 248 249 251 252 252 252 253 252 251 250 250 250 251 250 250 250 251 251 250 250 249 248 248 248 249 250 251 250 251 251 252 253 253 254 256 257 256 255 254 253 254 255 257
246 247 248 250 250 249 249 250 251 252 252 252 252 252 252 251 250 251 252 252 250 251 251 253 254 253 250 249 249 248 249 250 250 250 251 251 252 252 254 255 255 256 257 257 256 254 254 254 255
247 247 249 250 250 249 249 250 251 252 253 253 252 253 253 253 251 251 252 253 252 252 252 253 256 254 251 249 249 249 249 250 252 252 252 252 252 253 253 254 255 256 257 258 257 256 255 255 256
247 247 248 249 250 249 249 251 252 253 254 254 254 254 254 252 251 250 251 252 253 253 253 254 255 253 251 251 250 249 250 251 252 252 252 252 252 252 253 254 255 255 256 257 257 256 256 256 257
247 247 250 251 251 252 252 253 252 253 254 255 255 255 254 252 252 251 250 252 253 254 254 255 256 254 252 252 252 252 251 251 251 252 251 250 251 252 252 253 255 255 255 255 256 256 257 258 258
248 249 251 252 253 253 254 255 255 255 255 255 256 255 255 255 254 252 251 252 252 253 254 255 255 253 251 251 252 252 252 251 251 251 252 252 251 251 252 253 255 255 254 255 255 256 257 258 260
250 251 252 252 253 253 254 255 257 257 257 257 257 256 257 257 255 253 252 252 253 253 254 255 254 252 252 252 252 252 252 252 251 251 251 252 252 252 252 252 254 254 254 255 255 256 257 259 261
251 252 253 252 253 254 254 255 257 258 259 258 257 256 257 258 257 255 253 252 253 255 256 256 255 254 253 254 254 254 253 252 251 251 250 251 251 251 252 252 253 254 254 255 256 256 257 259 261
253 252 252 252 253 255 255 255 257 259 260 259 258 258 258 258 258 257 255 254 254 255 256 256 256 254 253 254 254 254 253 252 251 251 251 251 251 251 251 252 252 254 254 255 256 257 258 259 260
256 254 253 253 254 256 257 256 258 260 260 260 260 259 258 258 258 258 258 257 256 256 257 255 255 254 253 253 254 254 253 253 251 250 250 250 251 251 251 251 252 253 254 254 256 257 259 260 259
256 256 255 256 256 257 257 257 259 261 262 262 262 261 260 260 260 260 258 258 257 256 256 255 254 254 254 253 254 254 253 252 251 250 250 250 250 251 251 251 251 252 254 255 256 258 259 260 260
257 258 258 258 258 258 258 258 259 261 262 263 263 262 261 261 261 261 260 259 258 257 256 255 254 254 253 253 254 254 253 252 251 250 250 249 249 250 250 250 251 252 254 255 257 259 259 260 260
257 259 259 259 259 260 260 259 260 262 262 263 263 263 262 261 262 262 261 260 259 258 256 256 255 254 253 253 253 254 253 251 250 250 249 248 248 249 249 250 250 252 253 255 257 258 258 259 260
259 260 261 261 260 260 261 262 261 261 262 262 263 263 263 262 262 263 262 261 259 257 256 256 256 254 253 252 252 252 252 251 250 249 248 247 246 247 248 248 249 250 253 254 256 257 258 259 259
260 260 261 261 262 262 262 263 262 262 262 262 262 264 265 264 263 263 262 261 259 257 255 254 255 254 253 252 251 251 251 252 250 248 248 248 246 247 248 248 249 250 252 255 256 257 259 260 261
259 261 262 262 263 263 263 262 262 263 262 263 264 264 265 265 264 262 262 261 259 256 253 253 253 252 252 251 249 249 250 250 250 249 248 248 247 249 249 248 250 251 253 255 257 258 259 259 261
260 262 262 263 264 264 264 263 262 262 263 264 265 266 267 267 264 263 262 260 258 256 253 251 251 252 251 250 248 247 247 249 249 249 248 248 248 248 250 250 251 252 254 255 258 259 260 260 262
260 261 262 263 264 264 264 264 262 263 264 265 267 267 267 266 264 262 261 260 257 255 253 251 251 252 252 251 249 248 247 248 248 249 249 248 248 249 251 252 253 254 255 256 258 260 261 262 263
260 261 262 263 264 264 264 265 264 264 264 266 266 266 265 265 264 261 260 259 256 254 253 253 251 251 252 252 250 248 248 249 250 251 251 250 249 250 250 252 253 255 256 258 260 261 260 262 263
260 260 262 263 263 264 264 265 265 264 265 266 265 265 265 265 264 262 259 258 256 254 253 252 251 251 251 251 250 249 249 250 250 252 252 251 250 250 251 251 253 255 257 259 261 261 261 262 264
259 260 262 262 262 265 266 266 266 265 265 266 266 265 265 265 263 261 259 257 256 255 253 252 251 251 251 251 250 250 250 250 251 252 254 253 252 252 252 252 255 257 258 260 261 262 263 263 264
259 260 262 264 267 268 267 268 268 266 267 268 267 267 265 264 261 259 258 257 256 254 253 252 251 250 251 251 251 251 251 251 251 253 254 253 253 254 254 254 256 257 259 260 261 261 263 264 265
260 262 262 264 266 268 268 270 269 267 268 269 268 267 265 263 261 259 259 258 256 254 253 253 251 250 251 251 251 251 252 252 252 253 254 254 254 255 256 257 258 258 258 259 261 262 263 265 267
260 262 262 263 266 268 269 271 271 272 270 268 265 264 264 263 262 261 259 258 256 254 254 253 251 251 251 251 251 252 253 254 253 253 254 255 257 258 259 260 259 259 259 260 262 263 265 267 269
260 260 262 263 266 268 270 271 272 274 272 269 265 263 264 264 264 263 260 257 256 256 255 253 252 252 253 252 252 252 253 253 254 255 255 256 258 260 260 260 261 261 261 261 262 265 266 268 270
261 260 260 262 265 267 271 272 273 274 273 271 268 265 265 265 265 265 263 260 258 257 255 254 253 253 252 252 253 254 255 255 255 255 257 258 259 260 261 262 262 262 262 262 264 265 265 269 270
Height
5824 5825 5826 5828 5829 5830 5830 5832 5832 5833 5833 5834 5834 5835 5836 5837 5839 5841 5840 5839 5840 5841 5842 5843 5844 5844 5845 5846 5847 5848 5848 5849 5850 5851 5851 5852 5853 5853 5854 5854 5855 5855 5856 5856 5856 5857 5857 5857 5857
5820 5821 5823 5824 5825 5826 5827 5828 5829 5829 5830 5830 5831 5831 5832 5833 5834 5835 5835 5836 5837 5838 5839 5840 5841 5842 5843 5843 5845 5846 5846 5847 5847 5848 5849 5850 5851 5852 5852 5853 5853 5854 5854 5855 5855 5855 5855 5856 5856
5815 5817 5819 5819 5820 5822 5824 5825 5825 5825 5826 5826 5827 5827 5828 5829 5830 5831 5832 5833 5834 5834 5835 5837 5838 5839 5839 5840 5842 5843 5844 5844 5845 5846 5847 5848 5849 5849 5850 5851 5851 5852 5852 5853 5853 5853 5854 5854 5855
5811 5812 5814 5815 5816 5818 5820 5821 5821 5821 5822 5822 5823 5823 5824 5825 5826 5827 5828 5829 5830 5831 5832 5833 5834 5835 5836 5837 5838 5839 5841 5842 5843 5843 5844 5845 5846 5847 5848 5848 5849 5849 5850 5850 5851 5851 5852 5852 5853
5805 5807 5808 5809 5812 5814 5815 5815 5815 5816 5817 5818 5818 5819 5820 5821 5822 5823 5824 5825 5826 5827 5828 5829 5830 5831 5832 5833 5834 5836 5837 5838 5839 5840 5841 5842 5843 5844 5844 5845 5846 5847 5847 5848 5848 5849 5849 5850 5850
5800 5801 5803 5804 5807 5809 5809 5810 5810 5811 5811 5812 5813 5814 5815 5816 5817 5818 5819 5820 5822 5823 5824 5825 5826 5826 5827 5829 5830 5831 5833 5834 5835 5836 5837 5838 5839 5840 5841 5842 5843 5843 5844 5845 5845 5846 5846 5847 5847
5795 5796 5797 5800 5801 5803 5804 5804 5805 5805 5806 5807 5808 5809 5809 5811 5812 5814 5814 5816 5817 5818 5819 5820 5821 5822 5823 5824 5825 5826 5828 5829 5830 5832 5833 5834 5835 5836 5837 5838 5839 5840 5840 5841 5842 5842 5843 5844 5844
5789 5791 5792 5794 5796 5797 5798 5798 5799 5799 5800 5801 5802 5803 5804 5806 5807 5808 5809 5810 5812 5813 5814 5815 5816 5817 5818 5819 5820 5821 5823 5824 5825 5827 5828 5829 5831 5832 5833 5833 5834 5835 5836 5837 5838 5838 5839 5840 5840
5783 5786 5786 5788 5790 5792 5792 5792 5793 5794 5794 5795 5796 5797 5798 5799 5800 5802 5804 5805 5807 5808 5809 5809 5810 5811 5812 5813 5814 5816 5817 5818 5820 5821 5822 5824 5825 5826 5827 5828 5829 5830 5831 5832 5833 5834 5835 5835 5836
5777 5779 5781 5783 5784 5785 5786 5786 5787 5788 5788 5789 5790 5791 5792 5793 5794 5796 5798 5799 5801 5802 5802 5803 5804 5804 5805 5807 5808 5809 5811 5812 5813 5815 5816 5818 5819 5821 5822 5823 5824 5825 5826 5827 5828 5829 5830 5830 5831
5771 5773 5775 5776 5777 5779 5779 5780 5781 5781 5782 5783 5784 5784 5785 5786 5788 5789 5791 5793 5794 5795 5795 5796 5797 5797 5798 5800 5801 5802 5804 5805 5807 5809 5810 5812 5813 5815 5816 5817 5819 5820 5821 5822 5823 5824 5824 5825 5826
5765 5767 5768 5769 5770 5772 5773 5774 5774 5775 5776 5777 5777 5777 5778 5779 5781 5782 5784 5785 5786 5787 5788 5789 5789 5790 5791 5792 5793 5795 5796 5798 5800 5801 5803 5805 5806 5808 5809 5811 5812 5813 5815 5816 5817 5818 5818 5819 5820
5758 5760 5761 5762 5763 5765 5766 5766 5767 5768 5769 5770 5770 5771 5772 5772 5773 5775 5776 5777 5778 5779 5780 5781 5781 5782 5782 5783 5785 5786 5788 5790 5791 5793 5795 5797 5799 5801 5802 5804 5805 5807 5808 5809 5810 5811 5812 5813 5814
5751 5752 5754 5755 5756 5757 5758 5760 5760 5761 5761 5762 5763 5764 5764 5765 5766 5767 5768 5769 5770 5771 5772 5772 5773 5774 5774 5775 5776 5777 5779 5780 5782 5784 5786 5788 5790 5792 5794 5796 5798 5799 5801 5802 5803 5805 5806 5806 5807
5743 5745 5746 5747 5748 5750 5751 5752 5753 5754 5754 5755 5755 5756 5756 5757 5757 5758 5760 5760 5761 5762 5762 5763 5764 5765 5766 5766 5767 5769 5770 5771 5773 5775 5777 5780 5781 5783 5785 5787 5789 5791 5793 5794 5796 5797 5798 5799 5800
5735 5737 5738 5740 5741 5742 5744 5745 5746 5745 5746 5746 5747 5747 5748 5748 5749 5750 5750 5751 5752 5753 5753 5754 5755 5756 5757 5757 5758 5759 5761 5762 5764 5766 5768 5770 5772 5774 5776 5778 5781 5782 5784 5786 5788 5789 5790 5791 5792
5728 5729 5731 5733 5733 5733 5735 5737 5738 5737 5738 5738 5738 5739 5739 5740 5740 5741 5741 5742 5743 5743 5744 5745 5745 5746 5747 5748 5749 5750 5751 5753 5754 5756 5758 5760 5763 5765 5767 5770 5772 5774 5776 5778 5779 5781 5782 5783 5784
5721 5722 5723 5725 5725 5725 5726 5728 5730 5729 5729 5730 5730 5730 5731 5731 5732 5732 5732 5732 5733 5734 5735 5736 5737 5737 5738 5739 5739 5741 5742 5744 5745 5747 5749 5751 5753 5755 5758 5761 5763 5766 5767 5769 5771 5772 5773 5775 5776
5713 5714 5715 5716 5716 5716 5718 5719 5721 5720 5720 5721 5721 5721 5722 5722 5722 5722 5722 5723 5723 5724 5725 5726 5727 5728 5728 5729 5730 5732 5733 5734 5736 5738 5740 5742 5744 5747 5750 5752 5755 5757 5760 5761 5763 5764 5765 5766 5767
5704 5705 5706 5707 5707 5707 5709 5710 5712 5711 5711 5712 5712 5712 5713 5713 5712 5712 5712 5712 5713 5714 5715 5716 5717 5718 5719 5721 5722 5723 5725 5726 5728 5729 5731 5734 5736 5739 5742 5744 5747 5749 5751 5753 5754 5755 5757 5758 5758
5696 5697 5698 5698 5698 5698 5699 5701 5703 5703 5702 5703 5703 5703 5703 5703 5703 5702 5702 5702 5703 5704 5705 5707 5708 5709 5711 5712 5713 5714 5716 5718 5719 5721 5723 5726 5728 5731 5734 5736 5739 5741 5743 5744 5746 5747 5748 5749 5749
5688 5689 5689 5689 5689 5690 5691 5691 5696 5695 5694 5694 5695 5694 5694 5694 5693 5693 5693 5693 5693 5695 5696 5697 5699 5700 5702 5703 5704 5706 5708 5710 5712 5714 5715 5718 5720 5723 5726 5728 5730 5732 5734 5735 5737 5738 5739 5739 5740
5680 5680 5680 5680 5680 5681 5682 5681 5686 5686 5686 5687 5686 5685 5685 5684 5684 5684 5684 5684 5685 5686 5687 5688 5690 5692 5693 5695 5696 5698 5700 5702 5704 5705 5707 5710 5712 5715 5717 5719 5722 5724 5725 5726 5727 5728 5729 5730 5730
5671 5672 5672 5671 5671 5672 5675 5674 5676 5678 5678 5678 5677 5677 5676 5675 5675 5675 5675 5675 5676 5677 5678 5679 5681 5683 5685 5686 5688 5690 5692 5693 5695 5697 5700 5702 5704 5706 5708 5710 5712 5714 5715 5716 5717 5718 5719 5720 5720
5663 5664 5664 5663 5663 5665 5666 5665 5668 5669 5669 5669 5669 5668 5668 5667 5667 5667 5667 5667 5668 5668 5670 5671 5673 5674 5676 5678 5680 5682 5684 5686 5688 5690 5691 5694 5696 5698 5700 5701 5703 5704 5706 5707 5707 5708 5709 5709 5710
5655 5656 5656 5656 5656 5657 5657 5656 5660 5660 5660 5660 5660 5660 5659 5659 5659 5659 5659 5659 5659 5660 5661 5662 5664 5666 5667 5669 5671 5673 5675 5677 5679 5681 5683 5685 5687 5689 5690 5692 5693 5694 5695 5696 5697 5697 5698 5698 5699
5647 5648 5649 5648 5647 5647 5648 5650 5651 5652 5652 5652 5651 5651 5651 5651 5651 5651 5651 5651 5651 5652 5653 5654 5656 5657 5659 5661 5663 5665 5667 5669 5671 5673 5675 5677 5678 5680 5681 5682 5683 5684 5685 5686 5686 5687 5687 5687 5687
5640 5640 5641 5640 5639 5639 5640 5642 5643 5643 5644 5644 5643 5643 5643 5643 5643 5643 5643 5643 5643 5644 5645 5646 5648 5649 5651 5653 5655 5657 5659 5661 5662 5664 5666 5668 5669 5671 5672 5672 5673 5674 5674 5675 5676 5676 5676 5676 5676
5633 5633 5632 5632 5632 5632 5631 5636 5636 5636 5635 5635 5635 5635 5635 5635 5635 5635 5635 5635 5635 5636 5637 5638 5640 5641 5643 5645 5647 5649 5651 5652 5654 5655 5657 5658 5660 5661 5662 5662 5663 5663 5664 5664 5665 5665 5665 5664 5664
5624 5624 5625 5625 5625 5624 5624 5629 5628 5628 5627 5627 5627 5627 5627 5627 5627 5627 5627 5627 5628 5629 5629 5631 5632 5633 5635 5637 5639 5640 5642 5643 5645 5646 5647 5648 5650 5650 5651 5652 5652 5652 5653 5654 5654 5654 5654 5653 5652